Theta_e
316 316 316 316 317 320 320 321 320 320 319 319 318 317 316 316 315 318 318 318 319 318 318 317 318 318 319 319 320 320 320 319 321 320 323 330 331 329 328 329 330 332 333 330 329 331 331 331 331 330 333 334 333 333 329 330 333 322 312 313 312 313 316 315 314 319 325 326 324 324 325 323 322 322 322 322 323 324 324 324 324 324 323 321 322 324
317 316 316 318 320 321 321 321 321 320 319 318 317 316 315 315 316 318 319 319 320 318 318 318 318 318 319 320 320 321 320 320 320 321 321 326 329 328 327 329 331 332 331 328 328 330 331 330 330 329 332 334 334 335 331 331 335 328 315 312 313 312 313 312 317 324 327 325 323 323 324 323 321 322 323 323 321 319 316 317 317 314 316 319 318 319
317 316 316 319 321 321 320 320 319 319 318 317 317 316 314 315 317 318 319 320 318 317 317 318 317 318 320 319 320 320 320 321 319 321 321 320 323 323 323 328 331 331 329 328 327 328 329 330 329 330 331 333 335 336 334 333 336 332 320 313 312 311 311 313 319 323 323 322 323 322 322 323 322 323 324 321 319 318 313 311 310 307 314 322 323 321
315 316 318 319 320 320 318 318 318 318 317 316 317 314 313 315 315 316 318 320 320 318 318 318 318 319 321 320 319 320 320 321 320 320 321 319 321 322 322 328 330 329 329 328 326 326 328 328 329 331 330 330 335 337 335 335 335 333 326 316 312 311 311 313 317 318 317 317 319 319 320 322 319 317 319 315 313 317 315 310 308 307 314 321 322 323
315 317 320 319 319 319 317 317 318 317 316 316 317 315 314 316 315 315 318 320 320 320 320 320 317 316 319 320 319 320 320 320 321 320 320 319 320 320 322 328 328 327 328 328 327 327 327 326 326 330 330 330 334 336 336 335 334 333 330 320 312 312 312 312 314 315 312 312 313 313 315 316 311 309 315 316 315 319 318 313 310 311 314 316 318 320
315 319 320 318 318 318 317 316 317 318 316 316 317 318 316 317 317 317 319 319 318 318 320 320 316 314 317 319 319 320 319 320 321 320 320 319 320 320 320 326 329 328 329 329 329 328 327 326 326 328 329 330 333 334 335 335 334 332 330 323 313 312 312 312 313 313 311 310 310 309 309 311 311 314 319 319 319 321 320 316 313 311 310 311 313 313
316 318 318 317 317 317 317 316 317 319 317 315 318 319 318 318 318 318 318 318 316 316 320 320 316 314 316 317 319 320 319 320 320 320 320 319 320 321 320 324 328 329 329 329 329 329 328 327 326 326 327 329 331 332 333 334 334 332 331 325 315 312 313 312 313 313 311 311 310 309 311 314 317 321 322 319 320 320 315 312 311 310 309 312 312 310
317 317 317 317 317 317 316 316 317 318 316 316 319 319 318 319 318 318 317 317 317 317 318 319 317 315 315 317 319 319 319 319 320 320 321 320 320 320 320 321 323 326 328 327 328 329 329 327 326 325 325 327 329 330 332 333 333 332 330 324 316 312 313 312 312 312 311 311 309 311 316 319 320 321 319 316 316 314 309 309 314 315 314 316 315 313
318 317 317 317 316 316 315 316 317 318 316 318 320 319 318 319 319 319 317 316 318 317 316 316 317 315 314 317 319 318 318 320 321 321 320 319 319 319 320 320 319 320 324 326 328 328 327 326 326 325 326 326 327 329 333 333 332 332 330 325 319 315 313 312 312 312 312 311 310 314 318 320 320 319 315 312 311 310 308 310 317 319 314 312 312 311
317 317 318 317 316 316 315 316 317 317 318 318 319 318 318 319 318 319 318 317 317 317 315 316 316 315 315 316 317 317 317 319 321 320 319 319 319 319 319 319 319 320 320 322 325 326 325 326 327 327 328 329 329 330 332 334 332 330 330 327 324 319 315 313 312 311 312 311 310 315 319 320 320 317 313 313 311 309 309 309 312 315 313 310 310 309
316 317 317 316 316 316 316 317 317 317 318 318 318 318 318 318 318 318 318 317 317 317 316 316 316 316 315 315 317 318 318 319 320 321 320 321 320 319 320 320 320 320 319 319 320 321 323 325 328 329 329 330 331 329 330 334 333 329 328 328 326 322 318 314 312 311 312 312 311 314 318 320 320 315 313 314 311 308 310 309 311 314 315 314 310 308
316 316 315 315 315 315 315 315 316 316 317 317 317 316 316 316 317 317 317 318 317 317 316 315 315 315 314 315 318 319 319 320 320 321 321 321 321 320 320 320 320 319 319 319 320 321 322 322 325 328 328 329 331 331 330 333 334 331 327 327 327 325 320 317 314 311 311 312 311 314 317 320 320 316 313 313 310 310 311 311 314 316 315 313 310 308
315 315 316 316 315 315 313 313 313 315 315 316 314 315 315 315 316 318 317 318 317 317 317 316 316 315 314 316 318 318 319 319 320 320 320 320 321 320 320 319 319 319 319 319 320 323 323 322 323 324 327 328 331 332 331 333 335 333 329 328 327 326 322 319 316 312 311 312 312 313 316 320 321 316 315 314 310 311 313 313 316 317 315 314 311 309
315 316 316 316 315 315 314 312 312 313 314 315 314 314 314 315 317 318 317 317 317 316 316 316 316 315 314 317 318 318 318 319 319 320 320 320 320 320 319 318 319 320 320 322 324 326 326 326 324 323 326 329 331 334 332 333 334 334 331 329 329 327 324 320 318 313 311 312 312 312 315 319 320 316 316 317 313 313 316 317 317 318 319 318 314 311
314 315 315 316 316 315 315 313 313 313 314 316 315 315 315 315 317 318 316 316 316 315 315 316 316 314 316 320 320 318 319 319 318 319 319 320 320 319 318 319 320 321 323 325 327 327 328 328 328 327 329 330 332 333 332 331 333 333 332 331 330 328 326 323 320 315 312 312 312 313 314 317 317 314 315 320 318 315 318 320 318 318 320 319 317 314
312 313 315 316 316 315 314 315 315 314 313 315 316 315 314 315 316 316 316 316 315 315 315 315 315 315 318 320 319 319 320 318 318 318 318 318 318 318 319 319 321 322 324 327 329 328 328 328 329 330 330 331 331 332 331 331 331 332 332 331 330 329 329 326 322 316 312 311 311 313 314 316 316 314 313 318 321 318 319 321 319 318 320 320 319 316
312 312 314 315 315 315 315 315 315 314 313 314 314 313 315 316 315 315 315 315 314 315 316 315 314 316 317 318 317 318 318 316 317 317 317 318 317 318 320 321 322 323 325 327 329 329 328 328 328 328 328 329 329 329 330 330 330 330 330 331 330 329 329 328 325 318 313 311 311 312 314 316 318 317 314 315 320 319 318 321 320 318 319 320 320 318
313 312 314 314 314 314 315 315 314 314 314 312 312 313 314 315 315 315 314 314 314 316 315 314 314 315 314 315 317 317 317 316 316 316 317 318 319 320 322 322 323 324 324 325 327 328 328 327 327 327 327 327 328 328 329 329 328 328 328 329 329 329 329 329 327 321 315 312 312 312 315 318 320 321 319 317 319 320 319 320 321 320 319 319 320 319
313 312 313 314 313 314 315 314 314 314 314 313 312 314 313 312 313 314 314 314 315 315 315 314 313 312 312 314 316 317 317 317 316 315 317 318 319 321 322 324 324 324 324 324 326 327 328 327 326 326 326 326 327 327 327 328 327 327 327 327 328 328 327 328 328 325 320 316 315 315 316 319 321 323 323 321 319 320 320 320 320 320 319 318 320 320
313 313 314 314 313 314 314 314 312 312 314 313 313 313 313 312 312 312 313 314 314 315 315 315 313 314 315 317 317 317 317 318 318 317 317 318 319 320 322 323 324 324 324 324 325 326 326 326 326 325 325 326 327 327 327 326 326 326 326 326 327 326 326 327 327 326 325 322 321 321 320 321 322 323 324 324 322 321 322 322 321 320 320 319 319 320
313 314 314 314 313 313 312 313 312 313 313 313 312 312 313 314 313 313 312 312 312 313 314 314 313 315 318 319 317 318 318 319 320 318 317 318 320 321 323 323 323 323 324 323 323 324 324 324 325 324 324 325 326 326 326 326 326 326 326 325 326 325 326 325 325 325 325 324 324 324 324 324 324 324 324 323 322 322 322 323 322 321 320 319 319 319
314 313 313 313 312 312 312 313 313 313 314 314 314 313 314 315 315 314 314 314 313 314 315 315 314 316 319 319 318 318 318 318 319 318 318 320 321 322 322 322 322 322 322 322 323 323 323 323 323 324 324 324 324 325 326 325 325 325 326 325 325 325 324 324 324 324 324 325 324 324 324 324 324 324 324 323 321 321 321 322 322 321 320 319 319 319
315 314 313 312 312 312 313 313 313 314 314 314 314 314 314 314 314 313 313 314 313 314 314 314 315 318 320 319 318 319 318 318 318 318 319 320 321 321 321 321 321 320 320 320 321 321 321 322 322 323 322 322 323 324 323 324 325 325 325 325 325 325 324 324 324 324 324 324 324 324 323 321 320 320 321 321 321 321 321 320 320 322 322 320 319 319
314 313 312 313 312 312 312 311 311 313 312 313 313 313 313 313 313 313 313 313 313 313 313 314 315 318 319 318 318 318 317 318 318 318 319 320 320 320 319 320 319 318 318 318 317 318 319 319 319 320 320 321 321 321 320 321 323 324 324 325 324 324 324 324 324 324 323 323 323 323 322 319 317 317 317 317 319 321 321 320 318 319 321 321 320 320
313 313 312 312 312 312 312 311 311 311 312 312 313 313 314 313 313 314 313 313 314 313 313 314 315 317 317 317 317 316 315 316 317 318 318 319 319 318 318 318 317 317 316 316 316 315 315 315 316 316 316 317 318 317 317 317 318 319 320 321 322 323 324 324 324 323 323 323 323 323 322 320 320 320 319 317 317 319 319 319 318 317 317 319 320 320
313 313 313 313 312 313 313 311 311 311 311 312 312 313 314 313 314 314 312 313 314 314 314 314 315 316 317 316 316 315 315 316 316 316 317 318 318 317 317 317 317 316 316 315 315 314 314 314 314 313 314 314 314 314 315 315 315 315 315 316 317 318 320 321 322 322 322 323 323 323 323 322 323 323 322 321 319 319 319 318 318 317 316 317 318 318
312 312 312 312 312 312 312 311 311 312 312 312 312 312 313 313 313 313 312 313 314 314 314 314 314 316 316 315 315 315 315 315 316 316 317 318 317 317 318 317 317 317 316 316 316 315 315 314 314 313 313 313 313 313 313 313 313 313 313 313 313 313 315 316 316 317 318 320 321 322 322 322 322 323 323 323 322 321 320 319 318 316 315 315 315 316
310 310 311 311 311 311 311 310 311 311 311 311 311 311 312 312 313 314 314 314 313 313 313 314 314 315 314 314 315 315 314 315 315 315 316 316 317 317 317 317 317 317 316 316 316 315 315 315 314 314 313 313 313 313 313 312 313 313 312 312 311 311 311 312 313 313 314 315 316 316 317 317 316 315 315 317 319 319 319 319 318 318 317 317 317 317
310 310 310 310 310 310 310 311 311 311 311 311 311 311 311 312 312 314 314 313 313 313 313 313 314 314 313 313 313 314 314 314 314 314 314 314 316 317 317 316 316 316 316 316 315 315 315 315 314 314 313 312 312 312 312 312 312 312 311 311 310 308 308 309 310 311 312 312 312 311 312 313 312 311 312 313 316 317 318 318 318 319 320 320 320 320
311 310 311 311 311 310 311 311 310 311 311 310 311 310 310 311 312 313 313 313 313 314 313 313 314 314 313 312 313 314 314 314 314 314 314 314 314 315 317 316 315 315 315 315 315 315 315 315 314 313 312 312 312 312 312 312 312 311 310 310 309 308 308 307 307 308 309 310 309 308 309 310 310 311 312 313 313 314 315 316 317 317 318 319 319 319
311 310 311 311 311 311 311 310 310 310 310 310 310 310 310 311 312 312 313 313 313 314 313 314 315 314 313 313 313 313 313 313 313 313 313 313 313 314 315 315 315 314 313 314 315 314 314 314 314 313 312 312 311 311 310 310 311 311 310 309 308 309 309 307 306 307 307 308 308 307 307 309 309 309 310 311 312 312 312 313 314 315 317 318 318 318
311 310 311 310 311 310 310 310 310 310 309 310 310 311 311 311 312 312 313 313 314 313 313 313 313 312 312 313 313 312 313 313 313 313 312 313 313 313 313 314 314 314 313 312 313 313 313 313 313 312 311 310 310 310 309 309 309 310 309 308 308 308 307 306 306 307 308 307 307 307 307 307 308 308 308 309 310 310 311 312 312 313 314 314 316 317
310 310 310 310 310 310 309 309 310 310 310 310 311 311 311 311 311 312 312 313 313 313 313 312 312 312 312 312 312 312 312 312 312 313 312 312 312 312 312 312 313 313 313 312 312 312 312 312 312 311 311 310 310 309 308 308 309 310 309 308 308 307 306 306 307 307 308 307 307 307 307 307 307 307 308 309 309 309 309 310 310 311 312 313 314 315
310 310 309 309 309 309 309 309 310 310 310 310 311 311 311 310 311 311 312 312 312 312 311 311 311 311 311 311 311 311 311 311 311 312 311 312 312 312 312 312 312 313 313 312 312 312 311 310 311 310 310 309 309 309 308 307 308 308 307 307 308 308 307 307 307 307 307 307 307 308 307 307 307 308 307 307 307 307 308 308 308 309 310 311 312 313
309 308 308 308 308 309 309 309 309 309 310 310 310 310 310 310 310 310 310 310 309 309 310 310 310 310 310 310 311 311 311 310 310 310 311 311 311 311 311 311 312 313 313 312 312 311 310 310 310 310 309 309 309 308 307 307 308 308 307 308 308 308 307 307 307 307 307 307 307 307 307 308 308 308 308 307 306 306 306 307 308 309 309 310 311 311
308 308 308 308 308 308 308 308 309 309 309 308 310 311 311 310 309 309 308 309 308 309 309 309 309 309 309 309 309 309 309 309 309 309 310 310 310 310 309 310 311 312 311 311 310 310 310 309 309 309 308 308 308 307 307 308 308 308 308 308 308 307 307 307 307 307 307 307 307 307 307 307 308 308 308 308 307 307 307 307 307 308 309 310 311 311
308 308 308 308 307 307 307 307 308 309 308 309 310 310 310 310 309 309 308 309 308 308 308 309 308 308 308 308 308 308 308 307 308 308 309 309 309 308 308 308 309 309 309 309 309 310 310 309 309 308 308 307 307 307 307 307 307 307 308 307 307 307 308 308 307 307 307 307 307 306 306 307 307 308 308 308 308 307 307 307 307 307 308 308 310 311
308 308 308 308 307 307 307 307 307 307 308 308 309 309 309 309 309 308 307 307 308 308 308 307 306 306 307 307 307 307 307 307 307 308 308 307 308 308 307 307 307 308 308 307 308 308 309 308 308 307 306 306 305 305 305 305 306 307 307 307 307 307 307 307 307 307 307 307 307 307 306 307 307 308 308 307 307 307 306 305 305 305 306 307 308 309
307 308 307 307 307 307 306 306 306 307 307 308 308 308 307 308 307 307 306 306 307 308 307 306 306 306 306 306 306 306 306 306 306 307 307 307 306 307 306 306 306 306 306 306 306 306 306 306 306 305 305 305 304 304 305 305 306 306 306 306 306 306 306 307 307 307 307 307 307 306 306 306 306 307 307 307 307 307 306 306 305 304 304 306 307 309
306 307 306 306 306 306 306 306 306 306 308 308 307 306 306 306 306 306 306 305 305 306 306 306 306 306 305 305 306 305 305 305 306 306 306 306 306 306 306 305 305 305 305 305 305 305 305 304 305 304 304 304 304 304 305 305 305 305 305 305 305 305 306 306 306 307 307 307 307 306 306 306 306 306 307 307 308 308 308 307 306 305 305 306 308 309
306 306 306 306 306 306 306 306 305 306 307 306 306 306 306 305 305 305 304 304 304 304 305 305 304 304 304 304 304 305 305 305 305 305 305 305 305 305 305 305 305 305 305 304 304 304 304 304 304 303 303 303 303 304 304 304 304 304 305 305 305 305 305 305 305 306 306 307 307 306 306 306 305 306 306 307 307 308 307 307 306 306 306 307 308 309
305 305 305 305 305 305 306 305 305 306 305 304 305 305 305 305 304 303 303 303 303 303 304 303 303 303 303 303 304 304 304 303 303 303 304 304 304 304 304 304 304 304 304 304 304 304 303 303 303 303 303 303 303 303 303 303 304 304 304 305 305 305 305 305 305 305 305 306 306 306 306 305 305 305 306 306 306 307 306 306 306 306 307 308 309 310
305 304 305 305 305 304 305 305 305 305 304 303 303 303 304 304 303 302 302 302 302 302 302 302 302 302 302 302 302 303 302 302 303 302 303 303 303 303 304 304 304 304 304 304 304 303 303 303 303 303 303 303 303 303 303 303 303 303 303 304 304 304 305 305 305 305 305 305 305 305 305 305 305 305 305 305 305 306 306 307 307 308 308 309 310 310
304 304 303 304 304 303 303 304 304 303 302 302 302 302 302 302 302 302 301 301 301 301 301 301 301 301 301 301 301 301 301 301 301 301 301 302 302 302 303 303 303 303 303 303 303 303 303 303 303 303 303 302 302 302 302 302 303 303 303 303 304 304 304 304 304 304 304 304 304 304 304 304 304 304 304 305 305 306 307 308 308 309 309 309 310 310
303 303 303 302 302 303 303 303 303 303 302 302 301 301 301 301 301 301 300 300 300 300 300 300 300 300 300 300 300 300 300 300 300 300 300 300 300 301 301 301 302 302 302 302 302 302 302 302 302 302 302 302 303 302 302 302 302 302 302 303 303 303 304 304 304 304 304 303 303 304 304 304 304 304 305 305 306 307 307 308 308 308 309 309 309 310
302 302 302 301 301 301 302 302 302 302 301 301 301 300 300 300 300 300 300 300 300 300 299 299 299 299 299 299 299 299 299 299 299 299 299 300 300 300 300 300 300 300 301 301 301 301 301 301 302 302 302 302 302 302 302 302 302 302 303 303 303 303 303 303 304 304 304 304 304 304 304 304 304 304 305 305 306 307 307 307 307 308 308 308 308 309
301 300 300 300 300 300 300 300 301 301 300 300 300 300 300 299 299 299 299 299 299 299 299 299 299 299 299 298 299 299 299 299 299 299 299 299 299 299 300 300 300 300 300 300 300 301 301 301 301 301 301 301 302 302 302 302 302 303 303 303 303 303 303 303 303 304 304 304 304 304 304 305 305 305 305 305 305 306 306 306 307 307 307 307 308 308
300 299 299 300 300 300 300 300 300 300 300 299 299 299 299 299 299 299 299 299 299 299 299 298 298 298 299 299 299 299 299 300 300 300 300 299 300 300 300 299 299 299 300 300 300 300 300 301 301 301 301 301 301 302 302 302 302 303 303 303 303 303 303 303 303 303 304 304 304 304 304 305 305 305 305 305 305 305 305 306 307 307 307 307 307 307
300 299 299 299 299 299 299 299 299 299 299 299 299 299 299 299 299 299 299 299 299 299 299 299 299 299 299 299 299 299 300 300 300 300 300 300 300 300 300 300 300 299 299 300 300 300 301 301 301 301 301 301 302 302 302 302 303 303 303 303 303 303 303 303 303 303 303 303 304 304 304 304 305 305 305 305 305 305 305 306 307 307 306 306 306 306
299 299 299 299 298 298 299 299 298 298 298 299 299 298 298 299 299 299 299 299 299 299 299 299 299 300 300 299 299 300 300 300 300 299 299 299 300 300 300 300 300 300 300 300 300 301 301 301 301 301 301 302 302 302 302 302 302 302 303 303 303 303 303 303 303 303 303 304 304 304 304 304 305 305 304 305 305 305 306 307 307 307 306 305 305 305
299 299 299 298 298 298 298 298 298 298 298 299 299 298 298 298 299 299 299 299 299 299 299 299 299 299 299 299 299 299 299 299 299 299 299 299 299 300 300 300 300 300 300 300 300 301 301 301 301 301 301 301 301 301 301 301 302 302 302 302 303 303 303 303 303 303 303 304 304 304 304 304 305 305 305 305 305 306 306 307 306 306 305 305 305 305
Wind_Speed
9 6 6 8 5 3 4 4 5 7 10 11 11 9 5 6 7 4 7 10 4 4 5 7 11 12 8 8 11 12 11 7 7 7 10 23 30 30 29 27 25 24 21 18 19 20 19 19 19 19 19 17 16 17 19 20 19 19 20 18 16 16 13 10 9 9 9 6 6 7 5 5 5 3 3 6 4 4 5 6 4 2 2 2 2 2
5 6 8 8 1 2 6 8 7 7 9 9 9 9 5 7 4 6 5 6 5 2 5 6 11 9 8 12 10 5 6 8 6 8 7 14 21 21 23 30 30 27 24 21 21 21 20 22 22 21 21 19 18 18 20 21 19 19 19 18 16 15 12 10 11 12 10 7 5 7 5 5 5 5 6 5 2 1 2 4 3 1 1 3 3 1
5 8 12 9 3 2 3 6 7 8 9 8 7 7 5 8 3 11 8 2 5 2 5 6 9 9 9 11 6 4 7 5 6 9 12 11 13 13 12 27 30 27 26 23 22 22 21 22 22 23 24 22 20 20 21 21 20 19 19 19 17 14 13 12 12 13 13 11 9 9 8 7 7 8 7 2 3 5 4 3 3 3 5 6 7 7
6 5 7 4 3 2 5 4 6 6 6 7 6 7 6 8 8 3 6 1 2 1 4 7 8 9 9 6 4 9 10 6 6 12 16 13 12 12 10 26 29 24 26 22 19 20 20 22 23 23 24 24 23 22 22 22 21 20 19 19 18 15 14 13 12 12 11 12 11 11 12 10 6 7 6 1 4 6 6 6 6 6 7 6 6 8
10 1 7 6 4 2 4 4 5 5 5 7 8 9 9 9 10 5 4 5 4 4 4 9 8 6 8 5 6 10 7 8 9 14 15 13 12 12 10 27 28 23 24 21 19 20 20 23 25 24 23 24 25 25 24 24 23 22 20 19 19 17 16 14 13 11 9 10 9 8 11 9 6 7 6 5 6 7 6 6 7 7 6 5 6 7
8 2 5 4 2 3 4 5 7 6 5 8 9 10 12 13 12 8 0 3 2 5 6 8 7 5 8 8 9 10 7 9 11 11 10 11 12 12 10 22 29 26 24 23 23 24 23 23 23 24 24 23 25 27 25 24 23 22 21 20 19 17 16 15 13 11 10 10 8 7 10 10 9 10 9 6 7 7 4 4 6 7 6 7 6 5
3 1 1 3 3 4 7 7 8 8 7 6 4 6 11 10 10 10 8 4 4 5 4 7 6 5 5 8 9 10 10 10 9 8 9 10 10 10 10 15 24 26 26 22 22 25 25 24 22 24 25 24 25 27 26 26 24 23 23 21 20 19 17 16 14 12 11 11 10 10 11 11 11 11 9 7 6 6 4 4 6 7 8 9 8 9
3 5 2 4 5 5 8 7 8 10 8 4 2 7 10 8 9 10 9 7 6 6 3 7 8 6 5 8 7 5 7 10 10 10 9 11 13 13 11 12 14 19 26 25 22 24 23 23 23 25 26 26 27 27 27 28 26 25 24 23 21 19 18 17 15 14 13 11 11 12 13 12 11 11 10 8 6 5 4 6 7 7 7 8 8 9
3 4 4 5 8 6 7 9 10 12 9 5 2 4 8 9 10 9 8 7 6 7 6 7 8 7 5 7 6 4 6 8 10 9 8 9 13 13 13 15 14 14 20 24 25 27 24 22 23 26 26 26 29 29 27 29 28 26 26 24 22 20 19 17 16 15 14 12 12 14 15 13 11 11 9 8 6 4 4 5 7 5 3 6 6 7
4 6 4 5 7 6 10 10 7 8 7 5 4 5 8 11 10 8 6 6 6 6 7 7 7 6 5 5 6 6 7 7 7 8 8 8 9 8 9 9 5 5 7 11 17 23 24 24 26 29 29 28 31 30 27 26 28 28 27 26 24 22 20 18 16 16 15 14 14 15 17 15 13 11 10 9 7 5 5 4 5 4 3 5 5 7
5 3 3 6 8 8 11 8 1 4 6 5 5 6 8 10 8 6 5 5 5 6 8 11 11 9 6 5 4 2 6 7 5 4 6 6 7 5 4 2 1 2 3 3 6 12 18 23 25 29 30 28 28 29 26 25 28 30 29 27 25 23 22 19 18 17 16 15 15 16 18 16 14 12 12 10 8 7 6 4 4 4 3 3 4 5
7 6 6 7 10 10 11 9 5 6 8 6 5 6 7 6 5 5 4 5 6 6 7 11 11 10 7 4 1 3 5 6 3 3 6 5 4 6 7 3 2 2 2 3 2 3 7 12 16 21 23 22 22 25 27 26 27 29 30 29 27 25 23 21 19 19 17 16 16 17 19 18 14 14 14 11 8 8 7 6 5 4 2 1 3 5
8 8 8 9 10 9 9 7 7 7 7 6 6 6 6 4 4 5 4 5 6 6 7 7 6 6 6 4 4 5 5 5 2 4 10 9 7 9 7 3 2 2 1 3 2 7 6 4 8 13 16 18 19 22 26 26 24 26 29 29 28 27 26 23 21 20 19 18 16 17 20 19 16 15 15 12 10 9 8 6 6 5 3 1 3 4
5 8 10 8 9 10 7 6 6 6 5 6 6 4 5 4 5 5 5 6 5 6 7 3 4 4 4 3 2 5 5 7 5 6 8 9 10 8 4 4 4 3 3 4 7 8 5 3 3 8 12 16 19 21 23 23 22 22 25 27 28 27 27 25 23 22 21 20 18 17 20 21 18 17 16 13 11 10 8 7 7 6 4 3 1 3
6 5 7 8 5 9 7 7 7 7 4 6 6 4 4 4 5 5 4 5 4 4 5 1 0 3 2 2 1 6 6 7 6 6 7 7 8 7 4 4 6 7 8 9 9 8 6 6 4 5 7 11 17 20 21 20 19 20 22 25 26 26 26 26 25 23 22 21 19 18 20 21 19 17 17 14 11 11 10 9 8 7 6 6 4 2
8 6 6 8 3 5 5 8 6 8 6 3 4 4 4 4 5 5 5 6 4 4 5 3 3 2 1 3 3 6 5 5 7 9 9 7 8 9 6 6 8 9 10 10 10 9 8 8 6 5 6 7 10 15 17 18 18 18 19 23 25 26 25 25 25 24 23 22 21 19 20 21 19 17 17 15 12 11 11 10 9 8 8 7 7 5
6 5 2 5 4 4 10 8 3 4 4 2 3 4 2 3 6 5 5 5 4 5 5 3 5 2 2 4 5 7 7 7 8 9 10 11 10 9 8 8 9 10 11 10 10 10 10 10 9 7 6 5 7 9 12 14 15 15 17 20 24 25 24 23 24 24 24 23 22 20 20 20 18 15 15 15 13 11 11 11 10 9 9 8 8 9
3 4 2 3 6 10 9 5 6 7 7 5 4 2 1 3 5 4 4 5 5 6 4 4 7 6 3 4 6 8 8 8 9 9 10 11 10 10 9 10 11 12 12 11 10 12 11 11 9 9 7 5 6 6 8 10 12 14 15 17 22 25 23 21 21 22 23 23 23 21 20 20 18 15 13 13 12 11 11 11 11 10 10 9 9 11
2 5 5 7 11 8 7 4 6 9 10 9 7 5 3 3 4 3 3 5 5 5 5 5 8 7 5 2 5 9 10 9 9 8 9 10 11 11 10 10 11 12 12 11 11 12 12 12 11 10 9 7 6 6 7 9 10 12 13 14 18 22 22 20 19 19 21 22 21 20 20 20 18 17 14 12 12 10 10 11 11 10 10 11 10 11
3 4 4 7 11 8 5 5 4 6 9 12 8 6 5 4 4 3 4 4 4 5 5 5 7 4 1 2 2 7 6 4 6 7 9 9 11 14 11 10 11 12 12 12 12 12 12 13 13 12 11 10 9 7 7 8 9 10 12 13 15 18 19 20 18 16 16 18 18 18 18 18 17 16 14 14 14 12 10 10 11 10 10 11 11 12
3 3 3 6 9 9 4 3 4 6 5 5 6 5 5 3 3 4 5 5 5 6 5 5 6 2 2 2 1 4 4 2 4 6 7 9 13 15 12 11 11 12 14 14 13 12 12 12 13 14 13 11 12 11 9 9 10 10 11 13 15 15 15 16 15 14 13 14 14 14 15 15 15 14 14 15 16 15 12 11 12 11 10 11 12 13
2 3 4 6 6 8 7 5 6 6 6 5 4 4 4 2 3 5 5 5 4 5 5 6 5 1 2 4 4 2 3 3 3 7 4 12 15 14 12 12 12 13 15 15 14 14 13 13 13 13 12 12 14 15 13 13 13 13 14 14 15 15 13 12 12 12 12 13 15 15 15 15 15 15 16 16 16 16 15 13 12 12 12 14 13 12
3 2 5 6 6 8 10 11 11 8 6 8 7 6 6 5 4 5 5 4 4 5 5 6 5 1 1 3 3 3 1 5 7 10 7 15 14 13 13 12 12 14 15 15 15 15 14 14 14 13 12 12 13 13 12 13 15 15 17 18 19 19 17 16 15 15 14 14 16 17 18 18 18 18 19 18 17 16 16 16 15 15 16 16 15 14
3 3 5 7 7 8 11 14 14 10 7 7 7 7 7 7 7 7 6 5 5 6 6 6 5 0 1 3 2 4 4 4 8 7 11 14 13 13 13 13 13 14 15 15 15 15 15 15 14 14 14 13 12 11 10 10 12 13 15 17 20 22 22 20 20 19 17 14 12 13 16 19 20 21 21 20 20 19 18 19 17 16 17 17 17 18
2 3 4 6 6 7 8 9 9 9 7 4 4 5 7 9 10 9 6 5 5 6 7 7 5 0 1 1 3 3 5 2 3 5 10 12 13 13 13 12 13 13 14 14 14 14 14 14 14 14 14 14 14 13 13 12 12 11 11 11 12 15 19 20 19 17 16 14 12 12 12 13 14 17 19 21 22 21 20 19 16 16 18 19 19 18
3 3 3 5 5 5 6 4 2 3 3 3 4 7 8 9 11 8 4 4 6 6 6 7 5 0 4 3 0 2 3 2 2 4 9 11 11 11 12 12 12 12 13 13 13 13 13 12 13 13 13 14 14 14 14 14 14 13 12 11 10 10 11 14 14 12 11 10 11 11 10 9 10 11 14 16 17 17 19 20 21 22 24 25 25 22
4 4 6 8 8 8 9 9 9 8 7 7 8 10 9 9 10 7 3 5 5 5 6 7 6 5 2 1 1 1 2 4 4 4 6 9 10 10 11 11 10 11 12 12 12 12 12 13 12 12 12 12 13 13 13 13 13 13 14 13 13 13 12 10 8 8 8 8 8 9 9 8 9 9 9 10 12 14 16 19 22 24 25 27 29 26
3 5 8 10 12 13 14 15 15 13 12 12 12 13 12 11 11 7 5 7 7 6 7 6 7 9 8 8 6 3 3 5 4 4 3 4 8 10 10 9 10 11 11 11 11 11 12 13 12 12 12 11 12 12 12 12 12 12 12 12 11 12 13 13 10 9 8 8 8 7 6 5 6 5 4 4 5 7 9 12 15 16 18 21 23 24
4 6 8 10 13 14 15 15 15 14 13 14 15 16 14 12 12 11 10 10 10 9 9 8 9 11 11 11 10 8 7 7 7 7 6 3 5 10 10 8 10 11 11 10 12 11 11 12 12 12 12 11 11 10 10 10 10 10 10 10 10 9 9 11 10 9 8 7 6 6 5 3 1 1 1 1 0 2 4 6 7 8 10 13 15 18
3 5 7 9 12 14 14 15 14 14 14 14 16 17 14 13 14 15 13 13 13 13 14 14 13 13 12 11 11 12 13 13 12 10 6 8 10 9 9 11 13 11 11 11 11 10 9 10 10 11 11 11 11 10 9 9 9 9 9 8 8 7 6 6 7 8 7 5 3 3 3 1 0 1 0 0 1 2 3 4 5 6 7 9 11 13
3 3 5 6 9 11 12 13 13 14 14 15 16 16 15 15 15 15 13 11 11 11 14 14 12 10 9 10 12 14 15 14 13 13 11 11 13 12 11 14 15 13 13 12 11 9 7 7 8 9 10 10 10 10 10 9 8 8 8 7 7 7 6 4 4 5 6 4 2 2 2 1 1 1 1 2 2 3 4 4 5 6 7 8 10 11
3 3 5 5 7 8 10 12 14 14 15 16 16 15 16 15 12 12 12 11 9 10 11 11 9 7 6 9 12 13 15 14 13 14 11 10 14 16 18 18 17 16 16 13 12 12 10 7 6 7 7 7 7 7 8 8 7 8 8 7 6 6 4 2 3 4 4 3 2 2 1 2 2 1 2 3 4 4 5 5 6 7 7 8 10 10
4 4 4 5 6 7 10 12 13 12 12 12 9 8 10 10 9 11 12 11 10 9 7 8 8 5 7 10 11 9 10 13 14 13 11 13 17 15 11 16 19 18 17 17 13 12 12 10 7 5 4 4 4 5 7 6 6 7 7 5 5 4 3 2 3 3 3 2 2 2 2 3 2 3 3 4 4 5 6 7 6 7 8 9 10 11
6 6 6 6 6 8 11 12 11 9 9 8 4 2 5 7 9 10 10 10 11 9 7 9 9 7 8 9 9 9 9 10 16 20 16 11 14 17 16 13 12 10 11 13 14 14 12 11 9 5 2 1 2 3 4 4 4 5 4 4 5 4 3 3 3 3 3 2 2 2 2 3 3 4 5 6 6 6 7 7 7 8 9 9 10 11
6 6 6 5 6 7 9 9 9 9 6 6 7 5 4 4 5 8 11 11 11 12 12 11 10 11 12 11 8 9 10 8 12 19 16 10 10 14 15 13 10 8 6 7 9 9 10 12 9 4 0 1 2 4 4 3 3 3 3 4 5 4 4 3 3 4 3 3 3 2 3 3 4 5 6 7 6 7 7 8 8 9 9 10 11 12
7 6 5 5 6 6 6 7 8 8 8 9 9 7 8 3 2 6 9 8 7 11 12 10 8 11 15 16 10 10 13 10 9 13 13 7 9 14 15 14 14 9 4 6 5 5 11 9 4 1 2 4 5 6 5 4 3 3 4 4 4 4 4 4 4 5 4 5 4 4 4 4 5 6 7 7 7 7 7 8 9 9 10 11 12 13
8 5 4 5 5 5 7 8 8 9 11 9 5 9 10 6 4 3 4 5 7 8 9 8 7 9 15 18 13 13 17 12 7 9 10 7 6 9 12 14 14 12 7 2 2 4 4 3 5 5 4 4 6 7 7 6 5 5 5 5 6 6 6 6 6 6 6 6 6 5 5 6 7 8 8 8 8 8 8 9 10 11 11 12 13 14
9 7 5 5 5 6 7 7 8 9 7 2 4 6 8 8 8 6 4 5 5 6 6 7 7 7 13 17 15 16 15 9 3 5 11 13 9 6 7 8 7 6 7 8 6 0 4 6 7 6 5 5 7 9 9 9 8 7 7 7 7 7 8 8 9 8 8 7 7 7 7 7 8 9 9 10 11 11 12 12 13 13 13 13 14 14
9 7 6 6 6 7 7 7 7 6 3 3 3 4 7 9 7 5 4 2 5 9 9 9 8 7 10 14 15 13 8 5 2 5 11 16 14 9 7 8 7 6 4 3 2 3 5 6 7 7 7 10 12 12 11 11 10 9 10 10 9 10 10 10 10 10 10 10 10 9 9 9 10 11 12 12 13 13 13 13 13 14 14 14 14 15
7 5 6 7 8 8 7 7 7 3 1 3 4 5 7 8 7 5 4 1 9 13 10 7 9 10 11 13 13 9 6 5 5 7 10 14 15 12 9 9 10 10 8 7 8 8 8 8 9 9 11 13 13 12 12 13 13 13 13 12 12 12 12 12 13 13 13 13 13 12 12 12 12 12 13 13 13 13 13 13 14 14 14 15 15 15
3 4 6 7 8 8 7 8 6 1 3 5 7 7 8 7 4 3 3 3 8 12 11 9 10 10 11 12 11 8 8 11 12 13 14 14 14 14 13 12 12 12 11 11 13 14 13 12 12 14 15 16 15 15 15 15 15 15 15 15 15 15 15 14 14 14 15 15 15 15 14 14 13 14 14 14 15 15 16 16 16 16 16 16 15 15
2 3 4 5 7 7 6 7 6 2 1 4 8 9 7 4 1 2 5 8 10 11 12 12 11 11 12 13 12 12 13 15 16 16 17 17 17 17 17 16 15 15 15 15 17 17 16 16 18 19 19 19 18 17 16 17 18 17 16 17 17 16 16 16 16 16 16 17 17 17 16 16 16 16 16 17 18 19 19 19 18 17 16 15 15 16
2 2 4 5 6 6 5 7 7 3 1 3 6 6 4 3 4 6 9 11 12 13 14 14 14 13 14 14 15 15 15 16 17 17 19 19 19 18 18 18 18 19 18 18 18 18 18 19 21 21 21 21 20 19 18 19 19 19 19 19 19 18 18 18 18 18 18 18 19 18 18 18 18 18 19 19 20 20 20 19 17 16 15 15 15 17
2 3 5 4 2 3 5 4 2 3 4 4 6 5 5 6 7 9 11 13 14 15 16 16 16 16 16 16 16 17 17 18 19 19 20 21 20 20 20 20 20 20 20 20 20 20 21 22 23 24 24 24 23 22 22 21 21 21 20 20 20 19 19 19 19 20 20 21 21 21 21 20 20 20 19 19 19 19 19 18 16 15 15 15 17 17
2 3 5 4 2 3 5 4 2 6 9 9 9 8 8 8 10 12 14 15 17 17 17 17 17 17 16 17 18 19 19 20 21 22 22 23 23 24 23 22 22 23 23 23 23 22 23 24 25 26 26 25 23 22 22 22 23 24 23 22 21 21 21 22 22 22 22 22 22 22 21 21 20 19 19 18 18 17 17 17 16 16 16 17 18 17
9 12 7 4 4 6 7 7 8 10 11 12 10 10 12 13 13 14 15 16 16 17 17 18 18 18 19 20 21 22 22 23 24 25 25 25 26 26 26 25 25 25 25 26 25 25 25 26 26 27 26 25 24 22 22 22 23 25 25 24 23 23 23 22 23 23 23 22 22 21 21 20 20 19 18 17 17 17 17 16 17 18 18 18 16 15
11 13 7 5 6 7 6 6 9 12 13 14 14 14 14 14 14 14 17 19 18 17 18 19 20 21 22 23 24 25 25 25 25 26 27 27 27 27 27 27 26 25 25 26 26 26 25 25 25 25 24 24 23 23 23 24 24 25 24 24 24 24 24 23 24 24 23 23 22 21 21 21 20 19 19 18 18 17 16 17 19 20 19 18 17 16
6 8 5 6 7 7 7 9 12 14 15 14 13 13 13 14 16 18 20 21 20 19 20 21 22 23 23 23 24 25 26 25 25 26 26 26 27 28 28 28 27 27 26 25 24 24 24 23 24 24 24 25 24 23 23 24 24 24 24 24 24 24 25 26 25 25 24 23 23 23 22 21 21 20 20 20 19 18 18 19 20 18 16 17 18 18
7 6 6 7 7 6 7 9 11 12 12 11 12 14 15 17 19 21 21 21 20 21 21 21 22 22 22 23 23 23 24 25 24 24 25 26 27 28 28 28 28 27 26 24 23 24 24 24 24 24 24 25 24 24 24 25 25 24 24 24 24 24 25 27 27 27 26 25 25 25 24 23 23 21 19 19 20 20 20 21 20 17 15 17 18 15
8 7 5 5 5 5 6 9 11 9 8 11 15 17 18 19 20 20 20 19 18 18 19 19 20 20 21 21 21 21 23 23 23 24 26 26 26 27 27 28 28 27 26 25 24 22 21 21 22 23 24 24 23 23 24 24 24 24 24 23 23 24 25 26 27 27 27 26 26 26 25 24 24 22 21 22 22 21 21 21 21 19 18 17 14 10
5 5 5 5 6 7 10 13 14 11 11 14 17 19 19 20 19 17 16 17 17 17 18 19 20 21 21 21 21 21 23 24 24 24 25 25 25 25 26 26 25 24 23 22 21 20 19 19 20 21 22 23 23 23 23 24 24 23 23 23 23 24 25 26 26 27 27 26 25 25 23 23 23 22 22 23 23 21 20 20 19 16 13 12 9 10
Wind_Direction
223 235 239 241 234 285 315 340 352 347 336 326 312 297 267 247 235 200 141 142 178 246 217 235 245 235 226 207 192 181 180 198 254 251 163 148 157 171 178 180 181 179 179 176 173 177 176 171 173 173 171 173 174 179 175 163 166 176 170 164 161 157 155 150 136 107 97 100 92 100 114 114 97 52 95 119 133 157 147 139 138 135 199 247 150 141
220 252 250 248 224 36 3 3 352 338 325 315 302 301 297 267 245 103 109 140 130 288 263 263 267 248 225 231 224 206 201 182 200 257 235 180 180 189 182 171 173 172 171 173 169 174 179 175 177 178 173 175 181 186 181 170 170 178 174 170 166 162 161 156 140 127 130 140 121 113 119 114 101 95 108 109 101 101 148 170 196 233 77 32 31 32
212 245 250 241 115 78 1 355 333 326 312 301 287 283 288 277 261 101 106 149 124 181 257 257 264 263 243 237 240 257 251 206 182 235 256 231 211 232 202 163 160 161 166 174 174 176 180 176 182 185 178 180 188 192 186 176 173 175 176 175 169 164 163 157 150 148 151 157 149 133 136 147 148 146 146 125 76 80 62 72 48 46 87 68 47 39
236 225 236 222 86 344 319 332 316 316 290 277 278 269 267 264 261 152 132 117 41 38 290 283 278 294 290 262 257 252 233 206 207 235 253 246 221 244 206 155 157 167 171 180 183 181 182 182 190 191 186 187 191 197 191 180 177 174 176 179 172 167 166 161 161 162 161 162 162 159 161 167 168 165 176 180 89 86 63 65 66 74 98 98 97 84
261 226 109 101 80 293 298 305 278 278 269 254 246 255 267 266 271 286 100 87 347 313 283 283 281 282 277 243 238 253 213 173 215 234 244 241 224 241 200 155 162 176 177 185 190 186 186 190 199 197 192 192 194 201 196 185 181 175 177 181 174 172 170 168 170 164 158 162 166 173 173 169 148 131 131 106 83 79 68 67 70 73 83 83 102 110
259 326 97 129 188 218 245 265 247 240 261 255 237 240 258 276 293 301 299 125 278 266 220 232 256 251 243 229 226 239 209 183 221 234 233 235 222 229 206 158 160 169 172 178 181 181 183 189 202 204 200 198 200 206 202 190 185 178 179 183 177 175 175 175 175 163 157 161 162 167 163 153 131 114 116 111 94 100 99 71 68 69 72 70 76 88
214 159 276 282 276 259 252 257 252 242 252 264 287 277 254 262 286 285 279 262 249 268 208 188 238 264 243 250 247 234 212 192 214 233 227 236 225 221 223 176 162 164 166 170 175 180 184 188 198 206 205 203 205 211 207 196 189 182 181 185 181 179 180 180 177 167 164 162 155 152 143 135 126 125 142 151 133 139 139 89 73 61 60 62 58 62
250 164 143 296 274 260 257 255 241 232 241 254 346 309 275 259 263 260 263 261 254 280 252 186 234 267 256 263 273 254 213 185 200 225 219 222 217 207 213 203 188 178 170 170 178 184 193 201 203 207 210 209 209 215 213 202 193 186 184 187 184 182 184 184 178 170 169 166 154 145 137 135 141 151 164 165 154 153 127 88 76 62 58 63 56 60
279 195 158 244 254 252 253 254 245 234 232 227 231 299 285 273 267 260 254 253 258 274 260 224 237 253 251 260 255 223 215 201 200 212 214 225 218 197 199 209 205 193 178 174 178 182 196 213 217 216 215 211 209 211 213 206 197 189 187 188 186 185 188 186 181 176 173 170 155 144 142 148 165 174 171 167 166 153 126 104 102 100 68 69 65 59
254 243 237 242 243 245 247 245 245 250 252 252 280 310 288 271 270 268 264 265 265 262 263 261 255 254 256 261 243 200 200 219 216 202 203 225 224 193 201 213 181 167 178 173 180 185 191 200 205 208 207 204 204 206 211 209 201 193 189 189 187 188 192 188 184 180 177 173 159 148 147 158 183 183 166 170 173 159 148 129 124 128 74 64 67 59
229 194 278 275 256 257 263 263 231 250 266 264 262 273 264 255 256 261 263 271 268 258 258 256 251 252 256 256 265 224 181 200 229 207 172 196 217 177 150 172 152 219 230 215 209 194 186 189 192 198 201 200 201 205 210 210 204 197 192 191 187 189 194 190 186 184 182 176 164 153 152 168 191 180 166 180 181 169 170 150 127 123 98 71 59 61
241 187 195 233 247 264 276 280 274 246 251 259 252 262 267 251 244 256 249 246 252 254 256 256 250 243 248 259 308 72 132 162 219 209 159 168 186 116 105 134 197 231 242 256 265 108 150 181 191 197 202 205 204 204 207 208 206 199 196 194 188 189 196 195 188 186 186 181 170 160 158 173 193 180 174 189 185 176 181 162 146 147 148 93 54 61
258 254 234 207 204 233 264 268 259 241 230 247 249 248 263 258 246 251 245 242 246 251 259 281 291 252 240 243 184 143 156 174 172 159 167 170 134 103 107 132 102 72 233 235 87 72 88 162 201 209 214 217 212 206 205 206 206 201 198 196 190 189 197 199 192 188 189 185 177 168 165 176 191 184 182 192 187 183 185 170 164 172 180 114 51 58
244 263 267 244 187 189 230 256 250 234 203 224 243 239 246 248 247 247 248 253 249 254 259 298 340 273 248 270 197 143 150 160 128 104 140 144 119 115 141 145 122 100 60 50 65 67 76 108 187 209 215 217 207 202 203 204 205 202 199 198 192 189 196 202 196 189 190 189 183 177 173 179 189 186 185 194 195 188 183 181 179 180 197 220 324 41
245 246 243 244 185 155 203 248 264 281 260 227 232 232 234 242 257 261 261 266 273 288 281 229 261 263 240 276 87 103 110 133 143 133 125 121 126 147 167 126 102 84 68 64 71 71 73 83 106 163 187 203 198 196 200 202 205 203 201 201 195 190 195 201 198 191 192 191 187 185 181 183 191 191 187 189 197 191 181 191 193 180 199 230 257 312
248 258 222 220 167 112 234 254 262 283 288 263 241 230 218 219 242 254 263 277 300 305 287 239 242 285 183 218 157 121 140 161 158 146 145 161 160 151 142 114 96 87 81 75 74 71 69 75 81 116 146 169 182 190 195 199 206 206 205 203 197 194 194 198 198 194 195 194 190 190 188 188 192 195 190 185 198 203 184 193 208 189 193 224 248 268
251 278 228 190 177 206 248 267 278 272 291 317 272 254 259 244 243 252 261 270 272 260 262 244 245 242 148 210 176 164 193 177 153 153 163 170 151 132 123 113 101 91 86 77 73 71 70 75 78 92 121 146 160 180 193 199 207 210 210 205 197 195 194 194 197 196 196 196 194 193 191 189 189 195 196 184 192 213 196 194 213 203 192 212 241 260
261 283 276 221 236 224 221 263 290 276 284 291 266 261 285 254 251 259 264 265 260 254 253 242 246 239 225 221 174 182 200 171 167 178 164 151 137 125 112 105 103 97 94 91 85 78 75 79 85 89 99 123 146 166 183 193 204 207 210 207 198 195 192 190 192 194 195 195 196 196 193 189 186 187 195 187 189 218 216 200 208 210 201 206 228 250
238 272 271 261 269 243 178 192 266 261 253 252 269 296 287 257 250 237 245 260 262 267 265 257 262 260 258 259 167 185 197 183 192 188 159 159 152 130 110 105 106 104 104 101 93 87 84 85 89 94 97 109 135 157 167 179 198 200 198 203 202 197 192 188 185 187 192 193 194 197 195 192 187 183 187 185 184 207 219 207 207 213 213 209 215 238
254 275 278 263 280 279 188 185 255 259 233 227 241 269 271 277 278 250 249 261 259 267 273 270 274 277 311 341 192 190 191 199 223 197 170 171 147 126 122 122 112 107 108 104 99 95 90 89 92 98 99 102 114 133 153 165 179 184 182 189 196 196 192 189 183 177 181 187 189 193 194 194 192 188 189 188 185 191 204 206 206 211 222 225 220 228
277 277 277 270 288 291 252 214 264 292 285 243 229 239 246 263 278 265 256 258 263 269 276 280 278 299 48 0 122 150 161 214 255 223 175 145 124 120 127 127 116 110 105 104 106 102 97 99 99 100 106 114 118 118 127 141 150 160 167 173 178 186 192 192 185 177 176 181 183 186 189 192 194 193 196 200 197 196 202 212 217 217 225 239 241 238
301 275 271 270 276 274 266 257 261 279 300 303 289 275 283 292 280 273 262 263 282 280 277 282 279 13 38 348 28 93 177 155 261 257 159 118 116 118 123 123 119 114 108 107 108 105 103 107 106 106 113 129 134 126 126 139 143 145 152 157 160 166 174 178 179 181 182 183 184 184 186 191 196 199 203 207 208 209 212 218 227 229 228 234 246 252
36 291 277 272 266 274 282 283 281 277 273 284 286 278 284 288 276 273 270 280 295 284 284 290 287 13 3 326 1 318 265 142 211 234 140 113 120 125 124 125 121 113 110 109 109 108 109 108 109 111 111 122 137 135 137 151 150 142 142 146 152 157 160 164 171 176 182 192 196 194 198 208 217 220 219 218 218 217 217 219 226 235 237 235 236 240
27 268 262 270 275 282 279 274 275 267 238 250 268 272 278 277 271 274 283 292 288 282 290 289 278 275 320 317 4 319 312 146 178 174 119 117 128 129 127 127 124 119 116 115 114 114 116 114 112 112 108 110 119 116 117 139 151 151 149 146 150 156 159 162 170 174 179 193 200 198 209 224 232 235 235 231 225 220 219 224 226 234 245 249 245 241
325 247 239 262 274 276 263 249 252 250 233 233 270 287 289 285 277 269 277 293 284 279 284 278 276 213 117 19 25 322 295 223 151 134 137 142 137 135 136 130 127 126 124 123 123 121 120 120 118 116 115 115 115 113 109 115 130 144 151 149 149 156 160 160 162 165 170 181 188 191 203 215 222 231 236 236 234 233 235 237 234 236 245 250 250 249
294 276 271 267 264 269 267 259 282 311 305 293 287 283 287 303 301 287 275 280 273 280 280 271 285 279 154 159 281 292 293 278 244 199 167 149 140 144 141 136 137 135 130 128 126 124 122 120 118 118 120 119 118 119 117 115 116 118 120 119 120 133 152 160 159 158 160 167 180 191 199 200 201 213 226 231 232 236 242 248 250 249 248 247 249 251
290 280 276 270 269 274 281 294 316 326 313 292 285 278 272 286 299 296 279 268 272 297 289 276 296 306 262 280 343 47 331 303 283 241 180 154 156 158 141 140 147 140 138 135 127 125 122 117 116 116 117 119 119 119 117 117 116 114 112 110 111 114 118 127 135 136 137 142 162 185 200 207 206 207 215 221 223 226 233 241 248 251 248 246 249 250
274 262 258 262 266 270 278 288 298 300 293 287 284 280 275 280 291 292 273 273 280 282 268 276 309 312 313 324 336 13 339 294 296 289 243 151 158 166 159 165 166 155 151 145 138 138 130 123 124 121 119 120 120 119 118 117 115 113 113 111 113 117 116 115 110 105 112 122 138 156 170 192 206 213 221 223 227 238 243 242 244 249 249 248 248 245
250 259 256 262 264 266 271 276 280 282 282 282 280 282 283 284 284 276 265 274 284 281 276 287 299 293 296 306 309 318 314 292 285 272 256 250 219 188 175 196 192 170 166 159 150 149 141 136 136 133 132 129 125 125 124 123 125 122 118 113 110 114 119 122 119 113 112 116 127 135 136 156 185 63 46 61 146 261 280 277 270 270 263 256 253 249
211 256 266 273 274 274 274 275 282 284 282 280 279 279 278 272 271 274 276 273 269 271 279 285 284 281 286 295 299 303 305 302 303 293 259 245 245 208 182 215 218 196 185 172 157 154 151 147 143 136 137 137 135 136 131 128 132 128 123 119 112 107 110 119 124 122 119 123 138 132 121 137 191 66 126 236 223 227 242 264 278 284 280 274 271 266
150 255 288 294 285 281 282 283 285 282 280 282 281 282 285 282 278 282 288 283 272 269 276 282 287 288 291 299 299 296 293 286 280 277 264 249 244 225 208 225 231 227 220 192 169 169 164 159 159 149 144 141 140 142 139 136 137 134 130 125 118 117 122 126 127 123 124 133 134 97 93 145 201 280 264 246 247 251 247 242 246 254 264 274 278 278
162 259 301 303 284 281 285 282 280 281 282 281 279 282 286 284 283 279 271 270 274 275 280 286 288 293 312 310 295 291 299 298 279 268 275 290 275 249 233 237 239 239 242 230 202 190 181 175 174 155 145 150 151 151 150 147 149 148 146 143 141 146 153 145 126 124 136 145 135 131 167 193 211 256 264 252 249 254 251 244 246 249 253 260 267 271
237 258 276 279 277 285 288 288 296 302 291 279 283 301 294 292 309 303 283 278 281 275 274 277 272 291 347 337 311 303 325 338 333 320 327 339 329 313 282 253 238 231 243 249 237 212 193 184 177 159 152 156 153 156 156 155 162 162 158 158 162 167 162 137 134 148 162 166 163 187 211 220 228 235 240 248 256 258 257 258 263 264 261 259 259 259
260 263 268 272 274 281 288 296 302 290 272 271 292 334 302 297 309 312 311 318 321 318 313 301 302 332 353 336 322 327 338 345 339 331 326 322 319 323 321 297 266 249 248 245 238 224 196 165 147 140 164 164 166 191 179 165 176 182 182 172 168 175 171 160 172 185 184 191 196 210 239 251 249 239 237 248 261 269 274 276 275 270 267 266 265 263
252 259 270 273 269 274 287 294 281 261 263 288 291 298 322 316 302 306 307 309 320 332 329 319 331 348 334 312 306 317 320 325 330 326 323 327 332 327 319 313 311 306 286 257 243 213 161 140 133 123 251 248 265 272 254 225 201 196 202 188 181 196 202 195 203 208 210 220 221 233 263 267 259 253 256 270 283 288 289 288 285 282 279 276 273 268
255 259 264 266 266 272 275 266 258 268 287 290 297 343 15 14 277 292 289 287 326 347 338 329 341 347 330 315 309 318 320 320 323 316 307 316 7 15 10 5 5 359 312 252 242 142 121 124 137 153 260 264 279 288 273 244 224 215 217 213 214 229 230 222 224 228 233 235 237 252 260 255 255 257 264 275 280 282 285 285 283 283 280 277 276 271
254 253 244 247 253 258 264 262 264 279 286 284 319 24 29 16 3 352 302 302 327 322 308 313 334 348 335 324 332 354 346 332 321 325 326 329 354 16 18 16 19 26 37 69 197 170 168 242 273 259 257 273 277 276 275 276 272 261 246 242 244 246 243 241 244 247 246 240 243 255 256 253 258 262 266 271 272 276 279 278 278 278 276 275 274 272
231 231 231 233 237 246 261 269 267 268 275 311 51 47 38 28 26 18 329 315 327 322 332 356 4 2 344 336 351 10 357 331 308 350 356 354 340 323 341 352 354 5 28 40 37 347 238 264 273 255 256 286 288 283 283 280 275 268 261 258 258 256 254 255 255 253 252 252 255 257 253 252 256 258 261 263 268 273 274 276 281 283 280 276 272 270
227 227 240 245 246 250 254 260 264 265 281 30 33 40 40 27 8 338 302 318 10 10 16 16 355 337 335 339 350 359 343 317 352 359 348 346 342 332 331 334 326 310 311 336 323 257 242 260 271 270 278 284 283 282 279 274 272 271 268 265 265 262 260 258 256 256 257 260 261 258 255 255 255 256 258 258 261 267 269 273 280 284 282 278 272 269
247 248 249 247 249 250 250 255 262 258 61 25 10 25 30 14 349 306 262 330 8 4 7 3 346 341 337 335 337 334 311 307 329 332 328 329 329 327 318 311 312 313 312 301 285 282 284 280 276 281 285 284 282 278 274 273 273 272 270 268 264 262 261 260 258 259 260 260 260 261 260 259 259 260 263 262 261 263 264 268 274 277 275 271 266 264
270 281 264 254 249 245 245 252 257 235 68 15 2 357 346 346 338 274 256 308 339 343 347 347 341 337 331 326 323 314 311 321 325 321 316 310 306 307 308 305 302 299 295 289 292 302 309 301 289 286 282 280 280 277 274 273 271 268 267 266 264 263 263 263 261 261 261 261 260 260 259 259 260 261 260 260 261 262 263 267 272 273 269 266 264 261
227 272 273 263 253 253 253 252 256 244 80 338 345 347 338 333 317 291 318 321 319 326 334 331 327 326 323 318 314 309 309 316 316 313 313 311 307 305 303 301 297 293 288 286 290 297 299 291 284 280 277 275 275 273 273 274 271 270 268 265 264 263 263 263 262 261 262 262 261 260 260 260 259 258 258 260 261 263 266 270 271 270 266 262 259 255
256 262 267 259 257 265 262 256 263 258 187 333 348 360 5 0 346 329 323 320 322 326 325 318 315 317 316 311 308 307 308 310 308 305 305 306 305 303 298 293 290 287 284 282 282 285 286 284 281 279 280 283 284 283 282 278 273 271 270 267 266 265 264 263 262 261 261 261 261 262 261 261 260 260 261 263 263 264 267 270 270 268 263 256 251 250
287 261 271 280 293 274 261 257 241 201 229 298 345 359 353 342 330 323 318 315 316 317 313 309 307 307 308 307 304 303 302 300 298 297 297 297 298 298 295 290 288 286 284 280 277 278 280 281 281 281 282 282 281 279 278 276 275 274 272 270 269 267 265 265 264 262 262 263 263 264 263 263 263 263 262 263 263 263 263 264 266 266 259 251 246 247
2 358 313 315 346 305 291 301 270 238 264 310 349 352 336 324 311 307 307 303 304 307 307 306 309 313 314 310 306 304 301 298 296 294 293 292 293 292 291 288 286 286 287 285 281 281 282 281 280 281 282 284 285 283 279 277 278 279 278 275 273 270 268 267 266 264 264 265 265 265 265 265 265 264 263 263 261 259 260 262 264 260 254 251 248 243
39 21 348 313 316 309 302 304 301 296 309 332 341 325 315 312 306 308 312 309 311 318 318 313 310 310 309 305 302 299 296 295 294 293 291 290 289 288 287 287 285 283 284 284 283 281 281 279 278 278 280 284 287 288 285 283 280 279 278 276 273 272 270 269 266 265 264 264 265 264 263 263 263 263 263 262 260 259 260 259 256 253 253 255 251 240
48 29 348 295 296 299 299 308 312 314 317 321 321 318 317 311 309 323 336 336 332 328 322 315 308 303 301 299 297 296 297 298 298 296 292 290 290 289 288 285 284 283 283 283 284 284 283 284 286 287 287 288 288 285 283 283 281 279 278 275 272 272 271 269 266 265 264 263 264 264 262 262 262 262 260 258 259 260 259 257 255 256 258 255 244 238
41 31 336 290 285 289 297 310 315 315 314 314 317 319 318 315 320 331 337 333 326 317 310 305 304 303 302 300 299 300 302 302 302 301 297 293 293 294 292 288 285 285 284 286 290 292 293 295 297 295 292 292 291 287 282 280 279 277 276 274 271 270 270 268 266 265 264 262 262 261 261 260 259 260 262 261 258 257 257 258 256 253 251 245 240 243
320 329 317 310 306 297 301 315 325 326 320 316 316 316 319 324 326 326 323 319 315 314 310 305 304 304 300 298 299 299 297 295 295 296 296 293 291 290 291 291 289 288 290 296 300 299 298 298 297 295 291 288 288 286 283 280 279 277 275 272 270 268 267 265 264 263 262 261 260 259 258 258 257 258 259 258 256 254 254 253 250 247 246 247 248 252
313 316 329 330 309 294 310 330 339 335 313 308 315 318 320 320 318 314 314 314 313 313 311 306 305 303 299 297 296 294 292 293 295 295 294 292 289 287 287 290 292 292 294 298 299 298 298 296 294 292 291 289 288 287 284 281 280 277 275 272 269 267 265 263 261 260 259 258 257 255 255 255 255 253 251 251 252 252 247 241 239 243 250 257 256 246
327 323 339 335 315 310 316 320 324 320 305 304 310 311 310 311 313 313 314 315 316 316 313 310 308 306 304 302 299 295 293 294 295 296 295 293 291 291 289 288 290 293 295 295 297 298 298 297 296 295 295 293 292 290 286 284 282 279 276 274 270 266 263 262 260 259 257 255 253 251 249 249 249 249 246 243 241 240 238 233 229 232 245 258 247 206